This is the latest recevied weather packets stored in our database for station/object K8RLH. If no packets are shown the sender has not sent any weather packets the latest 10 day(s).
| Time | Temp. | Humidity | Pressure | Rain* | Wind** | Luminosity | Snow |
|---|---|---|---|---|---|---|---|
| 1777946447 | 17.22° C | 57% | 1017.5 hPa | 0 mm | - | 0 W/m² | - |
| 1777946144 | 16.67° C | 62% | 1017.4 hPa | 0 mm | - | 0 W/m² | - |
| 1777945841 | 16.67° C | 59% | 1017.2 hPa | 0 mm | - | 0 W/m² | - |
| 1777945537 | 17.22° C | 60% | 1017.1 hPa | 0 mm | - | 0 W/m² | - |
| 1777945235 | 17.22° C | 58% | 1017.1 hPa | 0 mm | - | 0 W/m² | - |
| 1777944932 | 17.22° C | 57% | 1017 hPa | 0 mm | - | 0 W/m² | - |
| 1777944629 | 17.78° C | 59% | 1017.2 hPa | 0 mm | - | 0 W/m² | - |
| 1777944327 | 17.78° C | 57% | 1017 hPa | 0 mm | - | 0 W/m² | - |
| 1777944024 | 17.78° C | 60% | 1017.1 hPa | 0 mm | - | 0 W/m² | - |
| 1777943719 | 17.78° C | 58% | 1017 hPa | 0 mm | - | 0 W/m² | - |
| 1777943417 | 17.78° C | 58% | 1016.9 hPa | 0 mm | - | 0 W/m² | - |
| 1777943113 | 18.33° C | 56% | 1016.8 hPa | 0 mm | - | 0 W/m² | - |
| 1777942809 | 18.33° C | 53% | 1016.8 hPa | 0 mm | - | 0 W/m² | - |
| 1777942505 | 18.89° C | 54% | 1016.9 hPa | 0 mm | - | 0 W/m² | - |
| 1777942203 | 19.44° C | 53% | 1016.9 hPa | 0 mm | - | 0 W/m² | - |
| 1777941900 | 19.44° C | 52% | 1016.7 hPa | 0 mm | - | 0 W/m² | - |
| 1777941596 | 20° C | 52% | 1016.6 hPa | 0 mm | - | 0 W/m² | - |
| 1777941294 | 20° C | 50% | 1016.6 hPa | 0 mm | - | 0 W/m² | - |
| 1777940990 | 20.56° C | 47% | 1016.6 hPa | 0 mm | - | 0 W/m² | - |
| 1777940686 | 21.11° C | 46% | 1016.4 hPa | 0 mm | - | 1 W/m² | - |
| 1777940385 | 21.11° C | 46% | 1016.6 hPa | 0 mm | - | 1 W/m² | - |
| 1777940082 | 21.11° C | 44% | 1016.7 hPa | 0 mm | - | 2 W/m² | - |
| 1777939779 | 21.67° C | 46% | 1016.6 hPa | 0 mm | - | 3 W/m² | - |
| 1777939477 | 21.67° C | 45% | 1016.6 hPa | 0 mm | - | 5 W/m² | - |
| 1777939173 | 21.67° C | 43% | 1016.5 hPa | 0 mm | - | 6 W/m² | - |
* Rain latest hour (hover to see other rain measurements)
** Current wind speed in m/s (hover to see current wind gust speed)